[[{"header":{"parameterUnit":"m.s-1","parameterCategory":2,"la1":30.2991,"la2":30.254,"lo1":-89.0895,"lo2":-89.0444,"dy":0.0017,"dx":0.0017,"nx":28,"ny":28,"refTime":"2024-03-05T03:00:00:Z","depth":"0","parameterNumber":2,"parameterNumberName":"U-component_of_CURRENTS"},"data":[0,0,0,0,0,0,0,0,0,0,0,0,0,0,0,0,0,0,0,0,0,0,0,0,0,0,0,0,0,0,0,0,0,0,0,0,0,0,0,0,0,0,0,0,0,0,0,0,0,0,0,0,0,0,0,0,0,0,-0.3081,-0.3082,0,-0.3087,-0.3087,-0.3086,-0.2996,-0.2994,-0.2993,-0.2991,-0.2897,-0.2896,-0.2895,0,0,0,0,0,0,0,0,0,0,0,0,0,-0.2894,-0.2898,-0.3081,-0.3082,-0.3083,-0.3087,-0.3087,-0.3086,-0.2996,-0.2994,-0.2992,-0.299,-0.2897,-0.2896,-0.2895,0,0,0,0,0,0,0,0,0,0,0,0,0,-0.2937,-0.2899,-0.3081,-0.3045,-0.3043,-0.3087,-0.3086,-0.3086,-0.2997,-0.2994,-0.2992,-0.2989,-0.2898,-0.2896,-0.2895,-0.2935,0,0,-0.289,-0.289,0,0,0,0,0,0,0,0,-0.2935,-0.2943,-0.305,-0.3048,-0.3045,-0.3046,-0.2986,-0.3033,-0.2997,-0.3005,-0.2991,-0.2988,-0.2945,-0.294,-0.2935,-0.2931,-0.2927,-0.289,-0.2889,-0.2889,-0.2888,0,0,0,0,0,0,0,-0.2932,-0.2942,-0.3075,-0.3051,-0.3048,-0.2996,-0.2999,-0.2994,-0.298,-0.3004,-0.3,-0.3015,-0.2942,-0.2937,-0.2932,-0.2925,-0.289,-0.2889,-0.2888,-0.2888,-0.2952,-0.2955,0,0,0,0,0,0,-0.2958,-0.2941,-0.3075,-0.3076,-0.2993,-0.3002,-0.3006,-0.3041,-0.2982,-0.2974,-0.3017,-0.3011,-0.2941,-0.2934,-0.2928,-0.2976,-0.2889,-0.2887,-0.2887,-0.295,-0.2953,-0.2956,0,0,0,0,0,0,-0.2954,-0.2971,-0.3075,-0.3013,-0.3023,-0.301,-0.3049,-0.3043,-0.3041,-0.2995,-0.2982,-0.3023,-0.2938,-0.2931,-0.2938,-0.2971,-0.2887,-0.2885,-0.2947,-0.2951,-0.2954,-0.3068,0,0,0,0,0,0,-0.2949,-0.297,-0.2999,-0.3016,-0.3029,-0.3125,-0.3052,-0.3045,-0.3058,-0.305,-0.2997,-0.2985,-0.2936,-0.2941,-0.2937,-0.2967,-0.2884,-0.2944,-0.2949,-0.2953,-0.3061,-0.3075,-0.3087,0,0,0,0,0,-0.2943,-0.3005,-0.3001,-0.3017,-0.3072,-0.3128,-0.313,-0.3103,-0.3061,-0.3085,-0.3042,-0.2987,-0.2968,-0.2943,-0.2937,-0.2967,-0.2941,-0.2947,-0.2953,-0.3055,-0.3072,-0.3087,0,0,0,0,0,0,-0.2937,-0.3004,-0.2999,-0.3077,-0.311,-0.3117,-0.314,-0.3121,-0.3107,-0.3085,-0.3023,-0.3011,-0.3033,-0.2996,-0.2969,-0.3004,-0.2946,-0.2951,-0.3025,-0.3041,-0.3054,-0.3038,-0.2883,0,0,0,0,0,-0.2957,-0.3017,-0.3063,-0.3123,-0.3147,-0.3144,-0.316,-0.3146,-0.3142,-0.3131,-0.3101,-0.3067,-0.3057,-0.3044,-0.3034,-0.3055,-0.2969,-0.3073,-0.3086,-0.3097,-0.3083,-0.3004,-0.3007,-0.2975,-0.2975,-0.2975,0,0,-0.2967,-0.3015,-0.3045,-0.3126,-0.3141,-0.3193,-0.3145,-0.3186,-0.3208,-0.3126,-0.3146,-0.3122,-0.3078,-0.3099,-0.3104,-0.3066,-0.3062,-0.3105,-0.3114,-0.3093,-0.301,-0.3013,-0.3015,-0.2979,-0.2978,-0.2978,0,0,-0.303,-0.3069,-0.3139,-0.3179,-0.3231,-0.3235,-0.3256,-0.328,-0.3268,-0.3297,-0.3241,-0.3234,-0.3227,-0.3196,-0.3177,-0.3262,-0.3144,-0.327,-0.3308,-0.3234,-0.3234,-0.3234,-0.3117,-0.3105,-0.3264,-0.3265,-0.3265,0,-0.3031,-0.3132,-0.3165,-0.3241,-0.3267,-0.3262,-0.3319,-0.333,-0.3346,-0.3332,-0.3317,-0.3289,-0.3266,-0.3258,-0.3291,-0.3288,-0.3208,-0.3248,-0.3247,-0.3244,-0.3242,-0.3121,-0.3107,-0.3271,-0.327,-0.3269,-0.3269,0,-0.3145,-0.3216,-0.3263,-0.335,-0.3384,-0.3437,-0.3459,-0.3476,-0.3457,-0.3445,-0.3444,-0.3415,-0.3374,-0.3394,-0.3367,-0.3354,-0.329,-0.3279,-0.3196,-0.3251,-0.3122,-0.3104,-0.3279,-0.3277,-0.3275,-0.3274,0,0,-0.3146,-0.331,-0.3319,-0.3364,-0.3437,-0.3472,-0.3515,-0.3537,-0.3523,-0.3542,-0.3512,-0.3532,-0.3483,-0.346,-0.343,-0.3386,-0.3314,-0.3332,-0.3325,-0.3197,-0.3105,-0.299,-0.2959,-0.3297,-0.3295,-0.3294,-0.3017,0,-0.3207,-0.3368,-0.3416,-0.3514,-0.3584,-0.3581,-0.361,-0.3617,-0.3597,-0.3573,-0.3536,-0.3512,-0.3517,-0.3485,-0.3449,-0.3344,-0.3275,-0.3387,-0.3087,-0.3076,-0.2953,-0.2938,-0.2861,-0.2602,-0.2999,-0.2995,-0.2993,0,-0.3282,-0.338,-0.3507,-0.3583,-0.3604,-0.3643,-0.3636,-0.3662,-0.3626,-0.3597,-0.3559,-0.3516,-0.346,-0.3457,-0.3284,-0.3349,-0.3235,-0.3159,-0.3145,-0.298,-0.2929,-0.2616,-0.2554,-0.2549,-0.2965,-0.2967,-0.2969,0,-0.3269,-0.3416,-0.3513,-0.3551,-0.365,-0.3658,-0.3674,-0.3659,-0.3627,-0.3595,-0.3527,-0.3484,-0.3391,-0.33,-0.3143,-0.3202,-0.2914,-0.2964,-0.2746,-0.2734,-0.2577,-0.2555,-0.2454,-0.2826,-0.2826,-0.2827,-0.2828,0,-0.3316,-0.3378,-0.3514,-0.3572,-0.3606,-0.3664,-0.3648,-0.3651,-0.3601,-0.3502,-0.352,-0.3392,-0.3345,-0.3178,-0.3091,-0.2823,-0.285,-0.272,-0.2653,-0.2616,-0.2601,-0.2516,-0.2569,-0.2817,-0.2819,-0.2821,-0.2823,0,-0.329,-0.3401,-0.3496,-0.3604,-0.3615,-0.3632,-0.3613,-0.3552,-0.3549,-0.3407,-0.3382,-0.3273,-0.3055,-0.2965,-0.2758,-0.2688,-0.2447,-0.2403,-0.2342,-0.2275,-0.2122,-0.2184,-0.1964,-0.1907,-0.2134,-0.2129,-0.2126,0,-0.33,-0.3362,-0.3485,-0.3471,-0.3511,-0.353,-0.3475,-0.3508,-0.342,-0.328,-0.316,-0.2978,-0.2758,-0.2437,-0.2321,-0.2118,-0.218,-0.1942,-0.2072,-0.2068,-0.2088,-0.2151,-0.2127,-0.1895,-0.189,-0.1886,-0.1882,0,-0.3247,-0.3291,-0.3336,-0.3356,-0.3326,-0.3287,-0.3232,-0.3163,-0.3116,-0.2999,-0.2749,-0.2593,-0.2329,-0.2089,-0.1894,-0.1789,-0.1932,-0.1844,-0.1858,-0.1897,-0.1937,-0.1864,-0.2109,-0.1843,-0.1847,-0.185,-0.1852,-0.1853,-0.3118,-0.3127,-0.3162,-0.3147,-0.3102,-0.2966,-0.2847,-0.2768,-0.2606,-0.2361,-0.2354,-0.2089,-0.1978,-0.1695,-0.1584,-0.1464,-0.1568,-0.1466,-0.1532,-0.1588,-0.1574,-0.1713,-0.1378,-0.1379,-0.138,-0.1381,-0.1382,0,-0.2924,-0.2932,-0.2915,-0.2866,-0.2716,-0.2774,-0.2588,-0.2402,-0.2135,-0.2011,-0.1815,-0.1649,-0.1458,-0.1409,-0.1303,-0.1218,-0.1235,-0.1196,-0.1309,-0.1294,-0.1399,-0.1435,-0.1076,-0.1076,-0.1076,-0.1076,-0.1076,-0.1076,-0.2805,-0.2734,-0.2753,-0.2485,-0.2407,-0.2146,-0.1989,-0.1768,-0.1625,-0.1323,-0.1239,-0.1197,-0.1253,-0.1339,-0.1238,-0.1163,-0.1175,-0.1102,-0.1138,-0.1291,-0.1325,-0.1357,-0.1402,-0.1043,-0.1043,-0.0995,-0.0995,-0.0995]},{"header":{"parameterUnit":"m.s-1","parameterCategory":2,"la1":30.2991,"la2":30.254,"lo1":-89.0895,"lo2":-89.0444,"dy":0.0017,"dx":0.0017,"nx":28,"ny":28,"refTime":"2024-03-05T03:00:00:Z","depth":"0","parameterNumber":3,"parameterNumberName":"V-component_of_CURRENTS"},"data":[0,0,0,0,0,0,0,0,0,0,0,0,0,0,0,0,0,0,0,0,0,0,0,0,0,0,0,0,0,0,0,0,0,0,0,0,0,0,0,0,0,0,0,0,0,0,0,0,0,0,0,0,0,0,0,0,0,0,-0.0025,-0.0024,0,0.0114,0.0115,0.0117,0.0178,0.0178,0.0178,0.0178,0.031,0.0313,0.0317,0,0,0,0,0,0,0,0,0,0,0,0,0,-0.0169,-0.0167,-0.0026,-0.0024,-0.0022,0.0113,0.0115,0.0117,0.0178,0.0178,0.0178,0.0178,0.0308,0.0313,0.0317,0,0,0,0,0,0,0,0,0,0,0,0,0,-0.0077,-0.0167,-0.0026,0.0026,0.0032,0.0113,0.0115,0.0117,0.0178,0.0178,0.0178,0.0178,0.0307,0.0312,0.0317,0.0353,0,0,0.0334,0.0336,0,0,0,0,0,0,0,0,-0.0083,-0.0072,0.0016,0.0022,0.0029,0.0129,0.0113,0.0196,0.0178,0.0122,0.0178,0.0178,0.0249,0.0259,0.0285,0.0359,0.0365,0.0334,0.0338,0.034,0.0341,0,0,0,0,0,0,0,-0.0089,-0.0077,0.0028,0.0018,0.0026,0.0066,0.0078,0.0129,0.0184,0.0127,0.0132,0.0149,0.0253,0.0279,0.0288,0.0367,0.0334,0.0339,0.0342,0.0344,0.0487,0.0488,0,0,0,0,0,0,-0.0107,-0.0084,0.0024,0.0033,-0.0027,0.0068,0.0082,0.0097,0.0183,0.0197,0.0149,0.0151,0.027,0.0282,0.0293,0.0339,0.034,0.0345,0.0348,0.0487,0.0488,0.0488,0,0,0,0,0,0,-0.0111,-0.0099,0.0019,-0.0021,-0.0004,0.007,0.0087,0.0099,0.0127,0.0201,0.0214,0.0164,0.027,0.0285,0.0345,0.0345,0.0347,0.0352,0.0486,0.0487,0.0488,0.0432,0,0,0,0,0,0,-0.0116,-0.0101,-0.0102,-0.0023,-0.0002,0.0066,0.0088,0.0102,0.0138,0.0143,0.0218,0.023,0.0272,0.0337,0.0351,0.0352,0.0356,0.0485,0.0487,0.0488,0.0434,0.0431,0.0429,0,0,0,0,0,-0.0121,-0.012,-0.0103,-0.009,-0.0004,0.0066,0.0081,0.0132,0.0139,0.0155,0.0206,0.0227,0.0353,0.0342,0.0358,0.0361,0.0485,0.0486,0.0488,0.0434,0.0432,0.043,0,0,0,0,0,0,-0.0188,-0.0111,-0.0091,-0.0068,-0.0007,0.0077,0.0095,0.0129,0.0182,0.0183,0.0243,0.026,0.0315,0.0347,0.0333,0.0406,0.0419,0.0424,0.0374,0.0372,0.037,0.034,0.0361,0,0,0,0,0,-0.0202,-0.0179,-0.0099,-0.0083,-0.0055,0.0017,0.0048,0.0087,0.0148,0.0171,0.0226,0.028,0.0333,0.0358,0.0416,0.0454,0.0484,0.0465,0.0463,0.0461,0.0448,0.0475,0.0473,0.0493,0.0493,0.0493,0,0,-0.0225,-0.018,-0.0168,-0.0095,-0.0047,-0.0004,0.0035,0.0084,0.0116,0.0177,0.023,0.0283,0.0346,0.0395,0.042,0.0419,0.0481,0.0463,0.046,0.0448,0.0476,0.0473,0.0471,0.0493,0.0493,0.0493,0,0,-0.0249,-0.0217,-0.02,-0.015,-0.0076,-0.0026,-0.0015,0.0072,0.0104,0.0167,0.0214,0.0261,0.035,0.0387,0.0417,0.0437,0.0476,0.0456,0.0413,0.0439,0.0437,0.0435,0.0505,0.051,0.0445,0.0445,0.0445,0,-0.0283,-0.025,-0.0186,-0.0151,-0.0122,-0.0041,-0.0019,0.0037,0.013,0.0144,0.0176,0.0285,0.0343,0.0381,0.0394,0.0429,0.0464,0.0414,0.0433,0.0432,0.0431,0.0503,0.0509,0.0443,0.0443,0.0443,0.0443,0,-0.0282,-0.0259,-0.0245,-0.0178,-0.0137,-0.0104,-0.0021,0.0016,0.0062,0.0111,0.0167,0.025,0.0299,0.0333,0.0376,0.0395,0.0432,0.0433,0.0431,0.0425,0.0503,0.051,0.0439,0.044,0.0441,0.0441,0,0,-0.0355,-0.0266,-0.0264,-0.0252,-0.0155,-0.0127,-0.0077,-0.0022,-0.0016,0.0078,0.0086,0.0191,0.0219,0.0255,0.0309,0.0339,0.0388,0.0378,0.038,0.0433,0.0477,0.0501,0.0512,0.0385,0.0385,0.0385,0.0546,0,-0.0381,-0.0355,-0.0288,-0.0269,-0.0256,-0.0176,-0.0144,-0.0087,-0.003,0.0004,0.008,0.0129,0.0195,0.0216,0.0253,0.0361,0.0399,0.0347,0.0487,0.0492,0.05,0.0517,0.0525,0.0667,0.0553,0.0554,0.0555,0,-0.0405,-0.0389,-0.0382,-0.0343,-0.033,-0.0302,-0.0271,-0.0225,-0.0153,-0.0115,-0.0063,0.0014,0.0096,0.0139,0.03,0.0263,0.0357,0.0439,0.0447,0.0484,0.0527,0.065,0.0685,0.0811,0.0567,0.0566,0.0565,0,-0.0513,-0.0461,-0.0472,-0.0451,-0.0382,-0.0378,-0.0344,-0.0277,-0.0249,-0.019,-0.0155,-0.0066,0.0017,0.0117,0.032,0.0303,0.0499,0.0494,0.0606,0.0612,0.0654,0.0661,0.0808,0.0575,0.0575,0.0574,0.0574,0,-0.0577,-0.0585,-0.0528,-0.0533,-0.0558,-0.0476,-0.0488,-0.0442,-0.0374,-0.0324,-0.0227,-0.0149,0.0015,0.0166,0.0297,0.0498,0.0487,0.0606,0.0643,0.0641,0.0644,0.0783,0.0837,0.0581,0.0579,0.0578,0.0577,0,-0.0686,-0.064,-0.0656,-0.0615,-0.0605,-0.0627,-0.0567,-0.0556,-0.0479,-0.0407,-0.0377,-0.019,0.0018,0.0196,0.0408,0.0503,0.0748,0.0728,0.0741,0.0774,0.095,0.1001,0.118,0.1266,0.0859,0.086,0.0861,0,-0.0736,-0.0755,-0.0741,-0.0744,-0.0722,-0.0728,-0.0712,-0.0636,-0.0591,-0.0403,-0.0354,-0.0139,0.0041,0.0359,0.0544,0.0762,0.0856,0.0887,0.0832,0.0967,0.1052,0.108,0.1142,0.0899,0.0901,0.0902,0.0903,0,-0.0836,-0.0829,-0.0838,-0.0855,-0.0847,-0.0829,-0.0783,-0.0759,-0.0616,-0.0504,-0.0282,-0.0123,0.0185,0.0449,0.0703,0.0818,0.0971,0.0914,0.1045,0.1084,0.1134,0.1233,0.0822,0.0912,0.0911,0.0911,0.091,0.091,-0.0905,-0.0943,-0.0943,-0.095,-0.093,-0.0872,-0.0823,-0.0718,-0.0599,-0.032,-0.0238,0.0063,0.0354,0.0712,0.0864,0.1122,0.1089,0.1173,0.1228,0.1248,0.1304,0.0927,0.1049,0.1049,0.1049,0.1049,0.1049,0,-0.0982,-0.0995,-0.1018,-0.0993,-0.0948,-0.092,-0.0807,-0.0686,-0.0472,-0.0227,0.0005,0.0346,0.0662,0.0948,0.1274,0.1423,0.1466,0.1494,0.1542,0.1593,0.126,0.1231,0.1408,0.1408,0.1407,0.1407,0.1407,0.1407,-0.1019,-0.1059,-0.1058,-0.0992,-0.0943,-0.0811,-0.0713,-0.0501,-0.0292,0.0108,0.0382,0.0567,0.0865,0.1374,0.1711,0.1739,0.1905,0.1868,0.1978,0.1744,0.1718,0.1693,0.1679,0.1947,0.1948,0.2286,0.2289,0.2292]}],[{"header":{"parameterUnit":"m.s-1","parameterCategory":2,"la1":30.2991,"la2":30.254,"lo1":-89.0895,"lo2":-89.0444,"dy":0.0017,"dx":0.0017,"nx":28,"ny":28,"refTime":"2024-03-05T03:00:00:Z","depth":"2","parameterNumber":2,"parameterNumberName":"U-component_of_CURRENTS"},"data":[0,0,0,0,0,0,0,0,0,0,0,0,0,0,0,0,0,0,0,0,0,0,0,0,0,0,0,0,0,0,0,0,0,0,0,0,0,0,0,0,0,0,0,0,0,0,0,0,0,0,0,0,0,0,0,0,0,0,-0.1406,-0.1407,0,-0.1445,-0.1445,-0.1445,-0.1449,-0.1449,-0.1449,-0.1448,-0.1451,-0.1452,-0.1452,0,0,0,0,0,0,0,0,0,0,0,0,0,-0.1295,-0.1297,-0.1406,-0.1407,-0.1408,-0.1445,-0.1445,-0.1445,-0.1449,-0.1449,-0.1449,-0.1448,-0.1451,-0.1452,-0.1452,0,0,0,0,0,0,0,0,0,0,0,0,0,-0.1336,-0.1297,-0.1406,-0.1416,-0.1418,-0.1445,-0.1445,-0.1445,-0.1449,-0.1449,-0.1448,-0.1448,-0.1451,-0.1452,-0.1452,-0.1456,0,0,-0.1453,-0.1453,0,0,0,0,0,0,0,0,-0.1334,-0.1339,-0.1414,-0.1416,-0.1418,-0.1445,-0.1407,-0.1448,-0.1449,-0.1433,-0.1448,-0.1448,-0.1448,-0.1449,-0.1452,-0.1456,-0.1456,-0.1453,-0.1453,-0.1453,-0.1453,0,0,0,0,0,0,0,-0.1331,-0.1338,-0.1418,-0.1415,-0.1417,-0.1406,-0.1411,-0.1415,-0.1438,-0.1435,-0.1436,-0.1446,-0.1449,-0.1452,-0.1452,-0.1456,-0.1453,-0.1453,-0.1453,-0.1453,-0.152,-0.1521,0,0,0,0,0,0,-0.1336,-0.1335,-0.1417,-0.1419,-0.1378,-0.1408,-0.1414,-0.1433,-0.1438,-0.144,-0.1446,-0.1446,-0.1451,-0.1452,-0.1452,-0.152,-0.1453,-0.1453,-0.1453,-0.1518,-0.152,-0.1522,0,0,0,0,0,0,-0.1333,-0.1343,-0.1415,-0.138,-0.1389,-0.1411,-0.1432,-0.1434,-0.1444,-0.1448,-0.1449,-0.1454,-0.1451,-0.1452,-0.1478,-0.1517,-0.1453,-0.1453,-0.1516,-0.1519,-0.1521,-0.1615,0,0,0,0,0,0,-0.133,-0.1342,-0.1355,-0.1381,-0.1391,-0.1446,-0.1432,-0.1435,-0.1452,-0.1452,-0.1455,-0.1455,-0.1451,-0.1478,-0.1479,-0.1516,-0.1454,-0.1514,-0.1517,-0.152,-0.1609,-0.162,-0.1629,0,0,0,0,0,-0.1326,-0.1353,-0.1355,-0.1365,-0.1409,-0.1448,-0.1452,-0.1464,-0.1452,-0.1468,-0.1475,-0.1455,-0.1498,-0.148,-0.148,-0.1519,-0.1512,-0.1516,-0.152,-0.1605,-0.1618,-0.1629,0,0,0,0,0,0,-0.1319,-0.1357,-0.136,-0.1398,-0.1426,-0.145,-0.1469,-0.1468,-0.1484,-0.1488,-0.1475,-0.1477,-0.1514,-0.1501,-0.1482,-0.1546,-0.1502,-0.1506,-0.1567,-0.1579,-0.1588,-0.1582,-0.1454,0,0,0,0,0,-0.1322,-0.1351,-0.1382,-0.1416,-0.143,-0.1446,-0.146,-0.1473,-0.1493,-0.1499,-0.1504,-0.1512,-0.1528,-0.1541,-0.155,-0.1584,-0.1562,-0.1609,-0.1618,-0.1627,-0.1622,-0.1648,-0.166,-0.1534,-0.1534,-0.1534,0,0,-0.1327,-0.1356,-0.137,-0.1416,-0.1436,-0.1476,-0.1454,-0.1493,-0.1534,-0.1497,-0.155,-0.1544,-0.1543,-0.1589,-0.1604,-0.1585,-0.1649,-0.1631,-0.1639,-0.1629,-0.1653,-0.1666,-0.1677,-0.1536,-0.1536,-0.1535,0,0,-0.136,-0.1381,-0.1412,-0.1441,-0.1484,-0.1504,-0.1516,-0.1549,-0.1571,-0.1618,-0.1604,-0.1632,-0.1648,-0.1671,-0.1679,-0.1747,-0.1696,-0.1736,-0.1787,-0.1814,-0.1824,-0.1833,-0.181,-0.1816,-0.1746,-0.1746,-0.1746,0,-0.1368,-0.1415,-0.1427,-0.147,-0.149,-0.1519,-0.1551,-0.1597,-0.1638,-0.1649,-0.1651,-0.1685,-0.1699,-0.1746,-0.1774,-0.1774,-0.1745,-0.1745,-0.1827,-0.1836,-0.1843,-0.1817,-0.1822,-0.1751,-0.1751,-0.175,-0.175,0,-0.1428,-0.1462,-0.1489,-0.155,-0.1565,-0.1615,-0.1658,-0.1709,-0.1731,-0.1747,-0.1793,-0.1818,-0.1834,-0.185,-0.1836,-0.1891,-0.1837,-0.1834,-0.1798,-0.1862,-0.1829,-0.1833,-0.1758,-0.1756,-0.1755,-0.1754,0,0,-0.1484,-0.1519,-0.1547,-0.1543,-0.161,-0.1626,-0.1713,-0.1768,-0.1823,-0.1862,-0.1902,-0.1953,-0.1938,-0.1946,-0.1939,-0.1966,-0.2011,-0.1918,-0.1917,-0.1893,-0.2016,-0.19,-0.1892,-0.2008,-0.201,-0.2011,-0.1967,0,-0.1539,-0.1604,-0.1615,-0.1665,-0.1674,-0.1713,-0.1789,-0.1837,-0.1887,-0.1948,-0.1969,-0.2007,-0.1985,-0.1999,-0.2026,-0.2005,-0.2026,-0.2019,-0.1957,-0.1954,-0.1845,-0.1896,-0.1764,-0.1706,-0.197,-0.1971,-0.1971,0,-0.1597,-0.1632,-0.1665,-0.1681,-0.1695,-0.1736,-0.1819,-0.1885,-0.1978,-0.2018,-0.2051,-0.2056,-0.2094,-0.2083,-0.2086,-0.2068,-0.2051,-0.2038,-0.2036,-0.1895,-0.1847,-0.1688,-0.1703,-0.1978,-0.1977,-0.1977,-0.1976,0,-0.1581,-0.1656,-0.1666,-0.168,-0.1727,-0.1752,-0.1801,-0.1891,-0.1947,-0.2045,-0.207,-0.2119,-0.2122,-0.2133,-0.2079,-0.2093,-0.2051,-0.2082,-0.1959,-0.1949,-0.1808,-0.1782,-0.2104,-0.2104,-0.2104,-0.2105,-0.2105,0,-0.1597,-0.1635,-0.1664,-0.1665,-0.1709,-0.1731,-0.1799,-0.1878,-0.1981,-0.2006,-0.2077,-0.2089,-0.2131,-0.2097,-0.2085,-0.1993,-0.2058,-0.1963,-0.194,-0.1833,-0.1811,-0.2025,-0.2016,-0.2103,-0.2103,-0.2104,-0.2104,0,-0.157,-0.16,-0.1602,-0.1651,-0.1669,-0.1691,-0.1778,-0.1844,-0.194,-0.1977,-0.1998,-0.2056,-0.2016,-0.2012,-0.2008,-0.1966,-0.193,-0.1882,-0.1719,-0.1678,-0.1816,-0.1813,-0.179,-0.1786,-0.1783,-0.178,-0.1777,0,-0.1583,-0.1568,-0.1565,-0.1556,-0.1576,-0.1632,-0.168,-0.181,-0.1847,-0.1921,-0.1904,-0.1912,-0.1871,-0.1801,-0.1762,-0.1717,-0.1799,-0.156,-0.1599,-0.1809,-0.1789,-0.1792,-0.1793,-0.1446,-0.1441,-0.1436,-0.1433,0,-0.1585,-0.1555,-0.1514,-0.1477,-0.1491,-0.1543,-0.1595,-0.163,-0.1738,-0.177,-0.1748,-0.1733,-0.167,-0.156,-0.1496,-0.1461,-0.1569,-0.1474,-0.1745,-0.1539,-0.1479,-0.1461,-0.1475,-0.1397,-0.14,-0.1403,-0.1405,-0.1406,-0.1558,-0.1515,-0.1405,-0.1372,-0.1385,-0.1399,-0.1399,-0.1456,-0.1484,-0.1484,-0.1533,-0.1465,-0.1463,-0.131,-0.1233,-0.1191,-0.1322,-0.129,-0.1306,-0.1325,-0.1286,-0.1223,-0.1083,-0.1084,-0.1086,-0.1087,-0.1089,0,-0.1479,-0.1412,-0.1338,-0.1241,-0.1192,-0.1263,-0.1293,-0.127,-0.1237,-0.1274,-0.1256,-0.1121,-0.1048,-0.1058,-0.0938,-0.0915,-0.0943,-0.0883,-0.0932,-0.0967,-0.0999,-0.0948,-0.0652,-0.0651,-0.065,-0.0649,0,0,-0.1399,-0.1271,-0.1204,-0.1051,-0.1018,-0.0954,-0.0952,-0.0943,-0.0943,-0.0904,-0.0894,-0.0982,-0.1007,-0.0829,-0.0788,-0.0699,-0.0827,-0.0661,-0.1008,-0.1098,-0.1129,-0.1224,-0.1182,0,0,0,0,0]},{"header":{"parameterUnit":"m.s-1","parameterCategory":2,"la1":30.2991,"la2":30.254,"lo1":-89.0895,"lo2":-89.0444,"dy":0.0017,"dx":0.0017,"nx":28,"ny":28,"refTime":"2024-03-05T03:00:00:Z","depth":"2","parameterNumber":3,"parameterNumberName":"V-component_of_CURRENTS"},"data":[0,0,0,0,0,0,0,0,0,0,0,0,0,0,0,0,0,0,0,0,0,0,0,0,0,0,0,0,0,0,0,0,0,0,0,0,0,0,0,0,0,0,0,0,0,0,0,0,0,0,0,0,0,0,0,0,0,0,-0.0269,-0.0269,0,-0.0235,-0.0234,-0.0234,-0.0198,-0.0197,-0.0197,-0.0197,-0.0113,-0.0112,-0.011,0,0,0,0,0,0,0,0,0,0,0,0,0,-0.0223,-0.0224,-0.0269,-0.0269,-0.0269,-0.0235,-0.0234,-0.0234,-0.0198,-0.0197,-0.0197,-0.0197,-0.0114,-0.0112,-0.011,0,0,0,0,0,0,0,0,0,0,0,0,0,-0.022,-0.0225,-0.0269,-0.0248,-0.0246,-0.0235,-0.0234,-0.0233,-0.0198,-0.0197,-0.0197,-0.0197,-0.0115,-0.0112,-0.0109,-0.0101,0,0,-0.01,-0.0099,0,0,0,0,0,0,0,0,-0.022,-0.0221,-0.0252,-0.025,-0.0247,-0.0222,-0.0187,-0.0187,-0.0198,-0.0214,-0.0197,-0.0196,-0.0147,-0.0141,-0.0134,-0.0097,-0.0093,-0.01,-0.0098,-0.0097,-0.0096,0,0,0,0,0,0,0,-0.022,-0.0222,-0.0253,-0.0251,-0.0249,-0.0213,-0.0213,-0.0187,-0.0181,-0.0213,-0.021,-0.021,-0.0145,-0.0137,-0.0131,-0.0092,-0.01,-0.0098,-0.0096,-0.0095,-0.0024,-0.0024,0,0,0,0,0,0,-0.0234,-0.0223,-0.0254,-0.0253,-0.0234,-0.0215,-0.0214,-0.0229,-0.0182,-0.0176,-0.0211,-0.0209,-0.0142,-0.0135,-0.0128,-0.0105,-0.0097,-0.0094,-0.0093,-0.0024,-0.0024,-0.0024,0,0,0,0,0,0,-0.0233,-0.0238,-0.0256,-0.0237,-0.0237,-0.0217,-0.0233,-0.0228,-0.0219,-0.0182,-0.0174,-0.0206,-0.0141,-0.0132,-0.0106,-0.0101,-0.0093,-0.009,-0.0024,-0.0024,-0.0024,-0.0064,0,0,0,0,0,0,-0.0232,-0.0238,-0.0251,-0.0239,-0.0239,-0.0262,-0.0234,-0.0228,-0.0221,-0.0218,-0.0175,-0.0167,-0.014,-0.011,-0.0103,-0.0097,-0.0088,-0.0025,-0.0024,-0.0024,-0.0063,-0.0065,-0.0067,0,0,0,0,0,-0.0231,-0.0261,-0.0252,-0.0255,-0.0259,-0.0263,-0.026,-0.024,-0.0221,-0.0227,-0.019,-0.0168,-0.0103,-0.0108,-0.0099,-0.0093,-0.0025,-0.0024,-0.0024,-0.0062,-0.0065,-0.0067,0,0,0,0,0,0,-0.0248,-0.026,-0.025,-0.0281,-0.0275,-0.0258,-0.0263,-0.0244,-0.022,-0.0212,-0.0169,-0.0159,-0.0135,-0.0109,-0.0115,-0.0071,-0.0059,-0.0057,-0.0091,-0.0093,-0.0095,-0.0111,-0.0086,0,0,0,0,0,-0.0258,-0.0285,-0.0279,-0.0303,-0.0302,-0.0279,-0.0276,-0.0263,-0.0242,-0.0231,-0.0198,-0.016,-0.0127,-0.0107,-0.0081,-0.0057,-0.0027,-0.0046,-0.0048,-0.005,-0.0057,0.0004,0.0007,-0.0023,-0.0023,-0.0023,0,0,-0.0272,-0.0281,-0.0295,-0.0307,-0.0299,-0.031,-0.0276,-0.028,-0.0273,-0.0225,-0.0205,-0.0171,-0.0125,-0.0099,-0.0085,-0.0075,-0.0029,-0.005,-0.0052,-0.0057,0.0005,0.0008,0.0011,-0.0023,-0.0023,-0.0023,0,0,-0.0317,-0.0319,-0.0355,-0.0354,-0.0352,-0.0335,-0.0337,-0.032,-0.0295,-0.0275,-0.0233,-0.0193,-0.0154,-0.0111,-0.0085,-0.0081,-0.0047,-0.0077,-0.0094,-0.0034,-0.0031,-0.0028,-0.0001,0.0005,-0.0072,-0.0072,-0.0072,0,-0.0328,-0.0371,-0.0363,-0.0391,-0.0389,-0.0349,-0.0371,-0.0343,-0.0315,-0.0288,-0.0277,-0.0197,-0.0155,-0.0105,-0.0105,-0.0084,-0.0062,-0.0088,-0.0037,-0.0033,-0.003,-0.0002,0.0005,-0.0074,-0.0074,-0.0073,-0.0073,0,-0.0398,-0.0422,-0.0441,-0.046,-0.0459,-0.047,-0.0435,-0.0412,-0.0373,-0.0339,-0.0287,-0.0228,-0.0175,-0.0156,-0.0129,-0.0081,-0.008,-0.0052,-0.0033,-0.0029,-0.0,0.0008,-0.0076,-0.0076,-0.0075,-0.0075,0,0,-0.0444,-0.0482,-0.0488,-0.0498,-0.0491,-0.0497,-0.0475,-0.044,-0.041,-0.0367,-0.0326,-0.0261,-0.022,-0.0188,-0.014,-0.0092,-0.0043,-0.007,-0.0065,-0.0048,0.006,0.0087,0.0099,-0.001,-0.0008,-0.0007,0.0063,0,-0.0492,-0.0561,-0.0558,-0.0592,-0.0615,-0.0563,-0.0546,-0.0505,-0.0447,-0.0397,-0.0314,-0.0267,-0.0232,-0.0202,-0.0147,-0.0066,-0.0023,-0.0067,0.0057,0.0061,0.0082,0.011,0.0089,0.0153,0.0071,0.0073,0.0074,0,-0.0563,-0.0591,-0.0653,-0.0647,-0.065,-0.0656,-0.0603,-0.0582,-0.0494,-0.0445,-0.0376,-0.0312,-0.0228,-0.02,-0.0065,-0.0099,-0.0029,0.0028,0.0033,0.0079,0.0104,0.0141,0.0171,0.0087,0.0086,0.0085,0.0084,0,-0.062,-0.065,-0.0699,-0.0705,-0.0702,-0.0693,-0.0669,-0.0601,-0.0567,-0.0475,-0.0438,-0.0332,-0.0274,-0.0169,-0.0049,-0.0052,0.0088,0.0112,0.0196,0.0197,0.0216,0.0217,0.0203,0.0202,0.0202,0.0202,0.0202,0,-0.0688,-0.0717,-0.0727,-0.076,-0.0773,-0.0748,-0.0736,-0.0687,-0.0615,-0.0574,-0.0472,-0.0411,-0.0264,-0.0161,-0.0057,0.0092,0.0093,0.0195,0.0228,0.0199,0.0198,0.0171,0.0167,0.0205,0.0204,0.0204,0.0203,0,-0.0764,-0.078,-0.0826,-0.0825,-0.0818,-0.0832,-0.0788,-0.0765,-0.0695,-0.0635,-0.0608,-0.0466,-0.032,-0.0183,-0.0007,0.0085,0.0222,0.0268,0.0207,0.0232,0.0289,0.0282,0.0385,0.0386,0.0388,0.0389,0.039,0,-0.0816,-0.0859,-0.0885,-0.09,-0.0902,-0.09,-0.0889,-0.082,-0.0782,-0.0659,-0.0627,-0.0481,-0.0352,-0.0101,0.0083,0.0271,0.0261,0.0349,0.036,0.0292,0.0313,0.0303,0.0294,0.0357,0.0358,0.0359,0.0359,0,-0.0894,-0.0912,-0.0944,-0.0975,-0.0981,-0.0978,-0.0945,-0.0927,-0.0833,-0.0753,-0.0622,-0.0513,-0.0267,-0.0043,0.0181,0.0285,0.0323,0.0369,0.0336,0.0315,0.0273,0.0291,0.0282,0.0364,0.0364,0.0363,0.0363,0.0363,-0.0933,-0.0972,-0.1008,-0.1038,-0.1038,-0.103,-0.1015,-0.0959,-0.089,-0.0742,-0.063,-0.0425,-0.0241,0.0119,0.0275,0.0414,0.0407,0.0444,0.0439,0.0435,0.042,0.0383,0.049,0.049,0.049,0.0491,0.0491,0,-0.0961,-0.101,-0.105,-0.1072,-0.1065,-0.106,-0.1024,-0.0979,-0.0888,-0.0736,-0.0577,-0.03,-0.0053,0.0139,0.0378,0.051,0.0488,0.0521,0.0466,0.046,0.0454,0.0438,0.0515,0.0516,0.0517,0.0517,0,0,-0.0978,-0.1035,-0.1068,-0.1084,-0.1082,-0.1057,-0.1037,-0.0959,-0.0845,-0.0669,-0.0489,-0.0278,-0.004,0.0144,0.0295,0.0415,0.0397,0.0418,0.038,0.0288,0.0281,0.0389,0.0355,0,0,0,0,0]}],[{"header":{"parameterUnit":"m.s-1","parameterCategory":2,"la1":30.2991,"la2":30.254,"lo1":-89.0895,"lo2":-89.0444,"dy":0.0017,"dx":0.0017,"nx":28,"ny":28,"refTime":"2024-03-05T03:00:00:Z","depth":"4","parameterNumber":2,"parameterNumberName":"U-component_of_CURRENTS"},"data":[0,0,0,0,0,0,0,0,0,0,0,0,0,0,0,0,0,0,0,0,0,0,0,0,0,0,0,0,0,0,0,0,0,0,0,0,0,0,0,0,0,0,0,0,0,0,0,0,0,0,0,0,0,0,0,0,0,0,-0.0905,-0.0906,0,-0.0962,-0.0963,-0.0963,-0.0994,-0.0994,-0.0994,-0.0995,-0.1049,-0.105,-0.1052,0,0,0,0,0,0,0,0,0,0,0,0,0,-0.0855,-0.0856,-0.0905,-0.0906,-0.0907,-0.0962,-0.0963,-0.0963,-0.0994,-0.0994,-0.0994,-0.0995,-0.1048,-0.105,-0.1052,0,0,0,0,0,0,0,0,0,0,0,0,0,-0.0891,-0.0856,-0.0905,-0.0929,-0.0932,-0.0962,-0.0963,-0.0964,-0.0994,-0.0994,-0.0995,-0.0995,-0.1048,-0.105,-0.1052,-0.1061,0,0,-0.1058,-0.1059,0,0,0,0,0,0,0,0,-0.0888,-0.0892,-0.0925,-0.0928,-0.0931,-0.0972,-0.0965,-0.0996,-0.0994,-0.097,-0.0995,-0.0995,-0.1023,-0.1027,-0.1037,-0.1063,-0.1065,-0.1058,-0.1059,-0.106,-0.1061,0,0,0,0,0,0,0,-0.0886,-0.089,-0.0927,-0.0926,-0.0929,-0.0948,-0.0953,-0.0971,-0.0994,-0.0972,-0.0975,-0.0982,-0.1025,-0.1035,-0.1038,-0.1066,-0.1058,-0.106,-0.1061,-0.1062,-0.1153,-0.1154,0,0,0,0,0,0,-0.0878,-0.0888,-0.0925,-0.0929,-0.091,-0.0949,-0.0954,-0.0958,-0.0994,-0.1,-0.0981,-0.0983,-0.1031,-0.1036,-0.104,-0.1102,-0.106,-0.1062,-0.1063,-0.1151,-0.1153,-0.1154,0,0,0,0,0,0,-0.0877,-0.0881,-0.0923,-0.091,-0.0917,-0.0949,-0.0953,-0.0959,-0.0981,-0.1002,-0.1007,-0.1,-0.1032,-0.1037,-0.1076,-0.1103,-0.1063,-0.1065,-0.115,-0.1152,-0.1153,-0.1195,0,0,0,0,0,0,-0.0875,-0.088,-0.0884,-0.091,-0.0918,-0.0953,-0.0953,-0.096,-0.0985,-0.0988,-0.1019,-0.1023,-0.1032,-0.1074,-0.1078,-0.1105,-0.1066,-0.1148,-0.1151,-0.1153,-0.1192,-0.1198,-0.1203,0,0,0,0,0,-0.0873,-0.0874,-0.0884,-0.0889,-0.0921,-0.0954,-0.096,-0.0983,-0.0986,-0.1002,-0.1026,-0.1023,-0.1091,-0.1076,-0.1082,-0.1109,-0.1147,-0.115,-0.1153,-0.1189,-0.1197,-0.1203,0,0,0,0,0,0,-0.0855,-0.0879,-0.0889,-0.0898,-0.093,-0.0959,-0.0973,-0.0989,-0.102,-0.1025,-0.104,-0.1047,-0.1092,-0.1094,-0.1077,-0.1142,-0.1118,-0.1122,-0.1144,-0.1151,-0.1156,-0.1154,-0.1068,0,0,0,0,0,-0.0853,-0.0859,-0.0892,-0.0901,-0.0916,-0.0947,-0.0964,-0.0984,-0.1013,-0.1027,-0.1052,-0.1077,-0.1105,-0.1122,-0.1146,-0.1181,-0.1171,-0.1201,-0.1207,-0.1211,-0.1214,-0.1219,-0.1225,-0.1163,-0.1163,-0.1163,0,0,-0.0846,-0.0861,-0.0864,-0.0897,-0.092,-0.0956,-0.0958,-0.099,-0.1025,-0.1028,-0.1082,-0.1099,-0.1119,-0.1163,-0.1182,-0.1169,-0.1225,-0.1215,-0.1219,-0.1218,-0.1223,-0.1229,-0.1234,-0.1165,-0.1165,-0.1164,0,0,-0.084,-0.0853,-0.0862,-0.0893,-0.0935,-0.0963,-0.0975,-0.102,-0.1046,-0.1097,-0.1109,-0.1142,-0.1187,-0.1208,-0.1222,-0.127,-0.1254,-0.1279,-0.1306,-0.1313,-0.1317,-0.1322,-0.1317,-0.132,-0.1282,-0.1282,-0.1282,0,-0.0836,-0.0855,-0.0872,-0.09,-0.0931,-0.0968,-0.1004,-0.1038,-0.1094,-0.1119,-0.1121,-0.1192,-0.1209,-0.1257,-0.1278,-0.1283,-0.1278,-0.128,-0.1319,-0.1323,-0.1326,-0.132,-0.1323,-0.1284,-0.1284,-0.1283,-0.1283,0,-0.0839,-0.087,-0.0881,-0.093,-0.0965,-0.1002,-0.1056,-0.1097,-0.1132,-0.1168,-0.1226,-0.1251,-0.129,-0.1303,-0.1309,-0.1349,-0.1334,-0.1324,-0.1299,-0.1335,-0.1326,-0.1329,-0.1287,-0.1286,-0.1286,-0.1285,0,0,-0.079,-0.087,-0.0875,-0.0918,-0.0989,-0.1021,-0.1081,-0.1148,-0.119,-0.1241,-0.1285,-0.1339,-0.135,-0.1366,-0.1375,-0.1383,-0.1407,-0.1368,-0.1368,-0.1358,-0.1414,-0.1319,-0.1312,-0.1402,-0.1403,-0.1404,-0.1397,0,-0.0795,-0.0855,-0.0893,-0.0968,-0.1012,-0.1071,-0.1127,-0.119,-0.124,-0.1294,-0.1323,-0.1371,-0.1375,-0.1394,-0.1407,-0.1407,-0.1415,-0.1409,-0.1385,-0.1384,-0.1291,-0.1313,-0.1406,-0.1399,-0.14,-0.14,-0.14,0,-0.078,-0.0833,-0.0901,-0.1007,-0.103,-0.1081,-0.1173,-0.1228,-0.1304,-0.1337,-0.1383,-0.1408,-0.1445,-0.1431,-0.1452,-0.1447,-0.1439,-0.143,-0.1429,-0.1327,-0.1294,-0.1357,-0.1404,-0.1404,-0.1404,-0.1403,-0.1403,0,-0.0733,-0.0836,-0.0895,-0.0931,-0.105,-0.1094,-0.1156,-0.1241,-0.129,-0.1361,-0.1389,-0.144,-0.1456,-0.1463,-0.1465,-0.146,-0.1467,-0.1453,-0.136,-0.1353,-0.1422,-0.1417,-0.1461,-0.1461,-0.1461,-0.1461,-0.1461,0,-0.0711,-0.0758,-0.0886,-0.092,-0.0999,-0.1084,-0.116,-0.122,-0.1303,-0.1348,-0.1407,-0.143,-0.1465,-0.1478,-0.1473,-0.1422,-0.1477,-0.1363,-0.1345,-0.1439,-0.1437,-0.1423,-0.1419,-0.1461,-0.1461,-0.1461,-0.1461,0,-0.0624,-0.0714,-0.0795,-0.0933,-0.0978,-0.1028,-0.1155,-0.1203,-0.1287,-0.1338,-0.136,-0.1426,-0.1431,-0.1458,-0.1459,-0.1414,-0.1387,-0.1358,-0.1461,-0.1448,-0.1265,-0.1263,-0.1238,-0.1235,-0.1232,-0.123,-0.1228,0,-0.058,-0.0607,-0.0773,-0.083,-0.0892,-0.0989,-0.1048,-0.117,-0.1216,-0.1321,-0.1328,-0.1372,-0.14,-0.1327,-0.1361,-0.1337,-0.1323,-0.13,-0.1278,-0.1257,-0.1242,-0.1245,-0.1247,-0.1223,-0.1222,-0.1222,-0.1221,0,-0.047,-0.0533,-0.0606,-0.0741,-0.0828,-0.0914,-0.1009,-0.104,-0.1163,-0.1248,-0.126,-0.1262,-0.126,-0.1255,-0.1249,-0.1234,-0.1308,-0.1269,-0.1275,-0.1254,-0.1239,-0.1227,-0.1232,-0.1211,-0.1212,-0.1213,-0.1214,0,-0.0378,-0.04,-0.0515,-0.0627,-0.0748,-0.082,-0.0887,-0.0954,-0.1019,-0.1145,-0.1141,-0.1187,-0.1246,-0.1201,-0.1199,-0.1174,-0.1146,-0.1101,-0.1115,-0.1126,-0.1092,-0.1056,-0.0953,0,0,0,0,0,-0.0274,-0.0289,-0.0388,-0.0533,-0.0664,-0.0729,-0.0854,-0.0923,-0.1045,-0.1021,-0.1085,-0.1083,-0.1069,-0.1096,-0.1041,-0.1136,-0.1146,-0.1067,-0.1102,-0.1155,-0.1167,-0.1136,0,0,0,0,0,0,-0.0214,-0.0259,-0.0338,-0.044,-0.0517,-0.0637,-0.0712,-0.0795,-0.0802,-0.0917,-0.0917,-0.0993,-0.0998,-0.1069,-0.1006,-0.1014,-0.1009,-0.1105,-0.1102,-0.1149,-0.1159,-0.1169,-0.1141,0,0,0,0,0]},{"header":{"parameterUnit":"m.s-1","parameterCategory":2,"la1":30.2991,"la2":30.254,"lo1":-89.0895,"lo2":-89.0444,"dy":0.0017,"dx":0.0017,"nx":28,"ny":28,"refTime":"2024-03-05T03:00:00:Z","depth":"4","parameterNumber":3,"parameterNumberName":"V-component_of_CURRENTS"},"data":[0,0,0,0,0,0,0,0,0,0,0,0,0,0,0,0,0,0,0,0,0,0,0,0,0,0,0,0,0,0,0,0,0,0,0,0,0,0,0,0,0,0,0,0,0,0,0,0,0,0,0,0,0,0,0,0,0,0,-0.0152,-0.0152,0,-0.0149,-0.0149,-0.0149,-0.013,-0.013,-0.0129,-0.0129,-0.008,-0.0079,-0.0078,0,0,0,0,0,0,0,0,0,0,0,0,0,-0.0106,-0.0107,-0.0152,-0.0152,-0.0152,-0.0149,-0.0149,-0.0149,-0.013,-0.013,-0.0129,-0.0129,-0.008,-0.0079,-0.0078,0,0,0,0,0,0,0,0,0,0,0,0,0,-0.0115,-0.0107,-0.0152,-0.0144,-0.0143,-0.0149,-0.0149,-0.0148,-0.013,-0.013,-0.0129,-0.0129,-0.0081,-0.0079,-0.0078,-0.0077,0,0,-0.0073,-0.0072,0,0,0,0,0,0,0,0,-0.0115,-0.0117,-0.0145,-0.0144,-0.0144,-0.0141,-0.0115,-0.0123,-0.013,-0.0133,-0.0129,-0.0129,-0.0098,-0.0095,-0.0093,-0.0075,-0.0073,-0.0073,-0.0072,-0.0071,-0.0071,0,0,0,0,0,0,0,-0.0114,-0.0117,-0.0149,-0.0145,-0.0144,-0.0128,-0.0129,-0.0116,-0.0116,-0.0133,-0.0132,-0.0135,-0.0097,-0.0095,-0.0092,-0.0072,-0.0073,-0.0072,-0.0071,-0.007,-0.0041,-0.0041,0,0,0,0,0,0,-0.0121,-0.0117,-0.0149,-0.0149,-0.013,-0.013,-0.0131,-0.0141,-0.0117,-0.0114,-0.0135,-0.0134,-0.0098,-0.0094,-0.009,-0.0092,-0.0071,-0.007,-0.0069,-0.0041,-0.0041,-0.0041,0,0,0,0,0,0,-0.012,-0.0124,-0.0149,-0.0133,-0.0136,-0.0132,-0.0143,-0.0141,-0.0139,-0.0119,-0.0115,-0.0135,-0.0097,-0.0092,-0.0082,-0.009,-0.0069,-0.0068,-0.004,-0.0041,-0.0041,-0.0093,0,0,0,0,0,0,-0.0119,-0.0124,-0.0132,-0.0134,-0.0137,-0.0165,-0.0143,-0.0141,-0.0143,-0.0141,-0.0118,-0.0113,-0.0097,-0.0084,-0.008,-0.0087,-0.0067,-0.004,-0.004,-0.0041,-0.0092,-0.0095,-0.0099,0,0,0,0,0,-0.0117,-0.014,-0.0133,-0.0137,-0.0149,-0.0166,-0.0166,-0.0159,-0.0143,-0.0153,-0.0131,-0.0114,-0.0083,-0.0083,-0.0078,-0.0085,-0.004,-0.004,-0.0041,-0.009,-0.0095,-0.0099,0,0,0,0,0,0,-0.0122,-0.014,-0.0133,-0.0158,-0.0164,-0.0164,-0.0174,-0.0162,-0.0153,-0.0147,-0.0118,-0.0113,-0.0106,-0.0087,-0.0088,-0.0076,-0.0057,-0.0057,-0.0096,-0.0101,-0.0104,-0.0107,-0.0065,0,0,0,0,0,-0.0128,-0.0152,-0.0157,-0.0177,-0.0182,-0.0175,-0.0178,-0.0174,-0.0167,-0.0162,-0.0144,-0.0121,-0.0104,-0.0096,-0.0081,-0.0076,-0.0046,-0.0076,-0.0079,-0.0083,-0.0081,-0.0037,-0.0037,-0.0042,-0.0042,-0.0042,0,0,-0.0134,-0.0148,-0.0159,-0.018,-0.0182,-0.0201,-0.0176,-0.019,-0.0195,-0.0158,-0.0158,-0.0136,-0.0106,-0.0102,-0.0097,-0.0087,-0.0067,-0.0083,-0.0086,-0.0082,-0.0038,-0.0037,-0.0037,-0.0042,-0.0042,-0.0042,0,0,-0.0171,-0.0171,-0.0207,-0.0215,-0.0228,-0.0222,-0.0227,-0.0228,-0.0218,-0.0218,-0.0187,-0.0169,-0.015,-0.0129,-0.0114,-0.0127,-0.0089,-0.0122,-0.0142,-0.0101,-0.01,-0.0099,-0.007,-0.0066,-0.0123,-0.0123,-0.0123,0,-0.0176,-0.0219,-0.0217,-0.025,-0.0257,-0.0234,-0.0262,-0.0253,-0.0246,-0.0233,-0.0226,-0.0181,-0.0162,-0.0139,-0.0147,-0.0136,-0.0107,-0.0131,-0.0106,-0.0104,-0.0102,-0.0072,-0.0067,-0.0125,-0.0125,-0.0125,-0.0124,0,-0.0242,-0.0267,-0.0287,-0.0318,-0.0324,-0.0345,-0.0331,-0.0324,-0.0304,-0.0288,-0.0262,-0.0231,-0.0201,-0.0194,-0.0177,-0.0152,-0.0136,-0.0117,-0.0097,-0.0104,-0.0073,-0.0066,-0.0129,-0.0128,-0.0127,-0.0127,0,0,-0.0272,-0.0325,-0.0331,-0.0346,-0.0358,-0.0369,-0.0369,-0.036,-0.0347,-0.0329,-0.0309,-0.0282,-0.0251,-0.0232,-0.02,-0.0167,-0.0138,-0.0141,-0.0138,-0.0117,-0.0051,-0.005,-0.0043,-0.0113,-0.0112,-0.0111,-0.004,0,-0.0319,-0.0393,-0.0402,-0.0443,-0.0468,-0.044,-0.0441,-0.0422,-0.0392,-0.0366,-0.0315,-0.0291,-0.0268,-0.0251,-0.0215,-0.0153,-0.0122,-0.016,-0.0043,-0.004,-0.0041,-0.0035,-0.0107,-0.0035,-0.0033,-0.0032,-0.0031,0,-0.0381,-0.0415,-0.048,-0.0492,-0.0499,-0.0517,-0.0492,-0.0491,-0.0441,-0.0413,-0.0369,-0.0325,-0.0274,-0.0253,-0.0152,-0.0175,-0.0121,-0.0074,-0.007,-0.0044,-0.0026,-0.0021,-0.0019,-0.002,-0.0021,-0.0021,-0.0022,0,-0.0406,-0.046,-0.0512,-0.0522,-0.0541,-0.0548,-0.0545,-0.0509,-0.0492,-0.044,-0.0414,-0.0344,-0.0303,-0.0225,-0.0133,-0.0138,-0.0017,-0.0009,0.0043,0.0043,0.0044,0.0042,0.0062,0.0062,0.0062,0.0061,0.0061,0,-0.0451,-0.0485,-0.053,-0.0557,-0.0587,-0.0583,-0.0592,-0.057,-0.0531,-0.0506,-0.0443,-0.0396,-0.0291,-0.0207,-0.0132,-0.0024,-0.0013,0.0043,0.0065,0.0018,0.0013,0.0048,0.0045,0.0064,0.0064,0.0063,0.0063,0,-0.0476,-0.0515,-0.0566,-0.06,-0.0609,-0.063,-0.0631,-0.0623,-0.0585,-0.0546,-0.0529,-0.0427,-0.0316,-0.021,-0.0076,-0.0021,0.0079,0.0113,0.0049,0.0067,0.0108,0.0102,0.0177,0.0177,0.0178,0.0178,0.0179,0,-0.0494,-0.0532,-0.0599,-0.0627,-0.0649,-0.0673,-0.0681,-0.0656,-0.0637,-0.0556,-0.0531,-0.0421,-0.0344,-0.0149,-0.0051,0.0094,0.0112,0.0155,0.0133,0.0107,0.0122,0.0115,0.0108,0.018,0.018,0.018,0.018,0,-0.0504,-0.0544,-0.0588,-0.0658,-0.0688,-0.0712,-0.0717,-0.0706,-0.0659,-0.0623,-0.0506,-0.0398,-0.0271,-0.0135,-0.0022,0.0079,0.0121,0.0161,0.016,0.0141,0.0112,0.0125,0.0117,0.0182,0.0182,0.0182,0.0182,0,-0.0496,-0.0532,-0.0603,-0.0658,-0.0714,-0.0735,-0.0739,-0.0695,-0.0668,-0.0568,-0.0529,-0.0385,-0.0298,-0.0141,-0.0037,0.0061,0.0081,0.0102,0.0105,0.0103,0.0057,0.0008,0.007,0,0,0,0,0,-0.0456,-0.0502,-0.058,-0.0648,-0.072,-0.0741,-0.0749,-0.0738,-0.0692,-0.0607,-0.0561,-0.0434,-0.0252,-0.0171,-0.007,-0.0052,0.0073,0.0066,0.0092,0.0194,0.0192,0.0148,0,0,0,0,0,0,-0.0431,-0.0496,-0.0567,-0.0639,-0.0684,-0.0737,-0.0747,-0.0718,-0.0659,-0.0597,-0.0495,-0.0417,-0.0244,-0.0302,-0.0067,-0.0038,-0.001,0.0158,0.016,0.0195,0.0193,0.0191,0.0146,0,0,0,0,0]}]]